Location: Newark
(45.7172°N, 12.2962°E)
Time: 16:29:11
(UTC+00:00)

Envisat - Visible Passes

Search period start: 08 December 2019 00:00
Search period end: 18 December 2019 00:00
Orbit: 764 x 766 km, 98.1° (Epoch: 08 December)

Date Brightness Start Highest point End Pass type
(mag) Time Alt. Az. Time Alt. Az. Time Alt. Az.
08 Dec 3.5 05:55:14 10° NNE 06:00:19 68° ESE 06:05:22 10° S visible
08 Dec 3.2 17:12:01 10° S 17:17:05 76° WSW 17:22:11 10° NNW visible
09 Dec 5.0 05:18:51 10° NNE 05:23:22 32° E 05:27:53 10° SSE visible
09 Dec 3.1 16:35:28 10° SE 16:40:22 52° ENE 16:45:19 10° N visible
09 Dec 5.4 18:15:53 10° SW 18:19:42 21° W 18:23:32 10° NW visible
10 Dec 6.0 04:43:19 10° NE 04:46:14 15° E 04:49:08 10° SE visible
10 Dec 3.9 15:59:42 10° ESE 16:03:51 26° ENE 16:08:02 10° N visible
10 Dec 4.1 17:37:49 10° S 17:42:39 44° W 17:47:31 10° NNW visible
11 Dec 3.9 05:44:01 10° NNE 05:49:01 54° E 05:53:58 10° S visible
11 Dec 2.9 17:00:43 10° SSE 17:05:48 87° ENE 17:10:55 10° NNW visible
11 Dec 6.1 18:43:29 10° WSW 18:45:31 12° W 18:47:33 10° WNW visible
12 Dec 5.4 05:07:48 10° NE 05:12:01 26° E 05:16:12 10° SSE visible
12 Dec 3.3 16:24:23 10° SE 16:29:09 42° ENE 16:33:56 10° N visible
12 Dec 5.1 18:04:05 10° SSW 18:08:19 26° W 18:12:34 10° NW visible
13 Dec 6.2 04:32:55 10° ENE 04:34:48 12° E 04:36:40 10° ESE visible
13 Dec 3.7 17:26:21 10° S 17:31:19 55° W 17:36:20 10° NNW visible
14 Dec 4.4 05:32:49 10° NNE 05:37:41 43° E 05:42:30 10° S visible
14 Dec 2.9 16:49:29 10° SSE 16:54:32 71° ENE 16:59:37 10° N visible
14 Dec 5.8 18:31:06 10° SW 18:34:05 16° W 18:37:06 10° NW visible
15 Dec 5.7 04:56:50 10° NE 05:00:37 21° E 05:04:23 10° SE visible
15 Dec 3.6 16:13:23 10° SE 16:17:56 34° ENE 16:22:30 10° N visible
15 Dec 4.7 17:52:25 10° SSW 17:56:57 32° W 18:01:31 10° NNW visible
16 Dec 3.3 05:58:08 10° NNE 06:03:15 74° ESE 06:08:19 10° S visible
16 Dec 3.3 17:14:58 10° S 17:20:01 69° WSW 17:25:07 10° NNW visible
17 Dec 4.8 05:21:42 10° NNE 05:26:20 34° E 05:30:57 10° SSE visible
17 Dec 3.0 16:38:19 10° SSE 16:43:17 57° ENE 16:48:16 10° N visible
17 Dec 5.6 18:19:03 10° SW 18:22:41 19° W 18:26:19 10° NW visible
